Wind_Speed
17 15 15 15 13 12 12 12 11 11 12 12 11 11 12 13 14 15 15 15 16 16 17 17 16 16 15 15 17 19 20 19 19 21 24 26 28 29 30 31 30 30 30 29 30 31 32 32 32 31 30 29 28 27 26 25 24 23 23 22 21 21 20 20 19 19 18 18 17 16 16 15 14 13 12 12 11 11 10 9 8 7 6 6 7
15 13 13 13 12 12 11 11 12 12 12 11 10 10 11 12 13 14 14 14 14 15 16 17 17 16 16 15 17 19 21 21 20 20 22 23 25 28 30 32 32 32 31 31 30 31 32 33 33 33 32 31 30 29 28 27 26 26 25 24 23 23 22 21 20 19 19 18 17 16 16 15 15 14 14 13 13 13 12 11 10 9 8 8 7
13 11 10 10 10 10 11 11 12 13 13 12 11 10 11 12 12 12 12 12 12 13 15 16 16 16 16 16 18 19 20 21 22 22 23 23 23 25 27 30 32 33 34 33 31 31 31 32 33 33 33 33 32 31 30 29 28 28 27 26 25 25 24 23 22 21 20 19 18 17 16 16 16 15 15 15 15 15 14 13 13 12 11 10 9
11 9 8 9 9 10 11 11 12 13 13 13 12 11 11 12 12 13 13 13 13 13 14 14 14 15 16 16 17 18 19 20 22 23 24 23 23 24 25 27 30 33 35 35 34 32 31 31 31 32 33 33 33 33 32 31 30 29 29 28 27 27 26 25 24 22 21 20 19 18 18 17 17 17 17 17 17 17 16 15 15 14 14 13 12
10 9 9 9 10 11 11 12 13 13 13 13 13 12 12 12 13 14 15 15 15 15 15 15 15 15 15 16 17 17 17 18 20 23 24 24 24 24 25 26 28 31 34 35 35 33 31 30 30 29 30 32 33 34 34 33 32 31 30 30 29 29 28 27 26 25 23 22 21 20 20 19 19 19 19 19 19 19 19 18 17 17 17 16 15
10 9 9 10 11 11 12 12 12 12 13 13 13 13 13 13 13 14 15 16 17 17 17 17 16 16 16 16 16 16 17 17 19 22 24 24 24 24 25 25 27 29 31 33 34 34 32 30 29 29 28 29 31 33 34 34 34 33 31 31 31 31 31 30 29 27 26 24 23 22 22 21 21 21 20 20 21 21 21 21 20 20 19 19 18
11 10 10 10 11 12 12 12 11 12 13 13 13 13 13 13 14 15 16 17 18 18 19 19 18 18 17 17 16 15 16 17 18 21 23 24 24 24 25 25 25 26 29 31 32 33 33 31 29 28 28 28 29 30 32 34 34 34 33 33 33 33 32 32 31 30 28 27 26 25 24 23 23 23 23 23 23 23 23 23 23 23 22 21 20
12 12 11 12 12 12 13 13 13 14 14 13 14 13 13 14 14 16 17 17 18 18 19 19 19 18 19 18 18 17 16 16 17 19 21 23 23 24 25 25 24 25 26 29 30 32 33 32 30 29 28 27 28 28 30 32 33 34 34 34 34 34 34 34 33 32 31 30 28 27 27 26 25 25 25 25 25 25 25 25 25 25 24 23 23
12 12 12 12 12 13 14 14 15 16 16 15 14 13 12 13 14 15 16 17 17 17 18 18 18 19 19 19 19 18 18 17 16 18 20 22 23 23 24 25 24 24 25 27 29 31 32 32 31 30 28 28 28 28 28 29 31 33 35 35 34 35 35 35 34 33 32 32 31 30 29 29 28 27 27 27 26 25 25 25 25 25 25 25 25
11 11 11 11 13 14 16 16 17 17 17 16 15 13 12 13 14 14 15 15 16 17 17 18 18 18 19 19 19 19 20 19 17 18 19 21 23 23 23 24 24 24 25 27 28 30 32 33 33 31 30 28 28 28 28 29 30 32 34 35 35 35 35 35 35 35 33 32 32 31 31 31 30 29 28 27 27 26 25 24 24 25 25 26 26
10 10 10 11 13 16 18 19 19 18 18 17 14 13 12 13 14 14 14 14 15 16 17 17 18 18 18 18 19 20 20 19 17 17 17 20 21 21 21 22 23 23 24 26 27 29 31 33 34 33 32 31 30 29 28 28 29 30 32 34 35 36 36 36 36 35 34 33 32 32 32 32 31 30 29 29 28 28 27 26 26 26 26 26 27
10 10 11 12 14 17 17 18 18 17 17 16 14 12 12 13 15 15 14 14 14 16 17 18 18 17 17 18 20 21 20 19 17 16 16 18 20 20 21 22 21 21 22 24 25 28 30 33 34 35 34 33 32 31 30 29 29 29 31 32 34 36 36 36 36 36 36 34 34 34 33 33 32 32 31 30 30 30 29 29 29 29 28 27 27
10 11 12 13 14 16 16 16 17 17 16 15 14 14 15 15 16 16 15 14 15 16 17 18 18 18 17 17 18 19 19 18 18 17 16 18 19 19 20 21 21 20 20 22 24 26 28 31 34 36 36 36 36 34 33 32 31 31 31 31 32 34 36 36 37 37 37 36 36 35 34 34 33 32 31 31 32 32 31 32 32 31 30 28 28
11 12 13 14 15 15 15 16 18 18 18 16 16 16 16 16 16 17 17 16 16 17 18 18 18 18 18 18 18 18 18 18 17 16 16 16 18 20 20 20 19 19 20 22 23 24 27 29 32 34 36 37 37 37 36 35 35 34 34 34 34 34 35 36 36 37 37 37 37 36 36 35 33 32 32 32 32 32 33 33 33 32 30 29 28
12 12 13 13 14 15 15 16 17 19 18 17 16 17 16 17 18 19 19 18 18 19 19 18 18 18 19 19 19 19 19 18 18 17 15 15 16 19 20 20 19 19 21 22 23 25 26 27 28 31 33 36 36 37 37 38 38 38 38 38 37 36 36 36 36 36 36 36 36 36 35 35 34 33 32 32 32 32 33 33 32 32 30 29 28
14 13 13 13 14 14 15 16 17 18 18 17 18 18 19 20 21 21 21 20 20 20 19 19 18 18 19 19 19 19 19 19 19 18 17 16 17 18 20 21 21 21 21 23 25 26 26 27 28 29 31 33 34 34 36 38 39 40 41 42 41 40 38 37 36 36 35 35 34 34 34 34 34 33 32 32 32 33 33 32 32 31 30 28 28
15 15 14 14 14 15 16 17 17 18 18 19 19 20 21 22 23 22 22 23 23 22 20 20 20 19 19 20 20 21 21 20 21 21 20 20 19 20 21 22 22 23 23 24 26 27 28 28 29 30 30 30 30 31 33 35 36 38 40 43 44 43 41 38 37 36 35 34 34 33 33 32 32 32 32 32 32 33 32 32 31 30 29 28 28
16 16 15 15 15 15 16 17 18 19 20 21 21 22 22 23 24 25 23 23 23 22 20 20 21 21 20 20 22 23 22 22 23 23 23 22 22 22 23 24 24 24 25 26 27 29 29 29 29 30 30 30 30 30 31 32 33 36 38 41 44 45 43 41 38 36 35 34 33 33 33 31 30 30 31 32 32 32 32 32 31 30 29 28 27
17 17 17 17 16 16 16 17 18 18 19 20 21 22 22 23 25 25 22 22 22 22 20 19 20 20 20 22 22 23 23 23 24 25 24 24 24 24 25 26 26 26 26 26 27 28 29 29 28 29 30 31 31 32 33 32 31 32 33 34 37 41 44 42 39 36 35 34 33 33 33 32 30 30 31 31 31 32 31 31 30 30 29 27 27
17 17 17 17 17 17 17 17 17 18 18 19 20 21 22 22 23 23 22 21 22 21 21 22 23 21 22 23 23 24 24 25 26 26 26 26 26 26 27 27 27 27 26 26 26 26 27 27 28 28 29 30 30 31 33 32 29 28 27 27 30 35 40 42 39 36 34 34 34 33 33 32 32 32 31 31 32 32 31 30 30 30 29 28 28
17 17 16 16 16 16 16 16 17 17 18 19 19 20 20 21 21 21 21 21 21 21 22 24 25 24 24 25 25 25 26 26 27 27 27 27 27 27 28 27 27 27 27 26 26 25 25 25 26 27 28 28 28 28 29 30 30 29 28 28 30 33 37 40 39 37 35 34 34 34 34 34 33 33 32 33 33 32 31 32 32 32 31 30 29
17 17 16 15 15 15 15 15 16 16 17 18 18 19 19 19 19 20 20 20 21 22 22 23 24 25 25 26 26 26 27 27 28 28 28 28 28 28 28 28 28 27 27 26 25 24 24 25 26 27 26 25 24 24 25 27 29 31 30 31 31 31 34 38 39 38 37 35 34 35 36 37 36 34 34 35 34 33 33 34 33 32 32 31 31
16 17 16 15 14 13 13 13 14 15 16 16 17 17 18 18 18 18 19 19 20 21 21 22 23 23 24 25 26 26 27 27 27 27 28 28 28 28 28 28 28 27 27 26 25 24 24 25 26 26 25 24 23 22 22 24 26 28 30 31 31 28 29 35 39 39 37 35 36 38 39 40 39 37 37 37 36 35 36 36 36 35 34 33 33
15 16 15 14 14 13 12 12 12 13 13 14 15 16 16 16 17 17 17 18 18 19 19 20 21 22 22 23 23 24 24 25 25 25 25 25 26 27 27 27 27 27 27 26 25 25 25 26 27 28 28 27 26 24 23 23 23 24 26 28 29 28 28 33 38 40 39 38 39 39 40 41 38 36 37 37 37 38 38 37 38 37 36 35 34
14 14 14 14 13 13 11 10 10 10 11 12 13 13 14 15 15 16 16 17 17 17 18 18 19 20 20 20 21 21 21 22 22 22 22 23 23 24 24 24 25 25 25 25 24 25 25 26 28 30 30 30 29 27 25 24 23 23 23 24 27 28 29 31 35 38 41 44 44 41 41 43 40 37 36 35 35 37 38 38 38 39 38 36 35
12 13 13 12 12 11 11 10 9 9 9 10 10 11 12 13 14 15 15 16 16 16 17 17 17 18 18 18 18 18 19 19 20 20 20 20 21 21 21 22 23 23 23 23 23 24 24 25 27 29 30 30 30 28 26 25 23 23 24 24 25 26 28 30 34 37 40 43 45 44 44 44 45 45 44 42 40 40 41 40 40 40 39 38 37
11 12 11 11 10 10 10 10 10 10 10 9 9 10 10 11 12 13 14 14 15 15 15 15 16 16 16 16 16 16 17 17 18 18 18 19 19 19 19 19 19 20 20 20 20 21 22 23 24 26 26 27 27 26 25 24 23 23 23 24 25 26 26 28 32 36 38 39 41 45 47 45 45 47 49 49 48 47 47 45 43 42 42 40 39
12 11 10 8 7 7 8 9 10 11 12 11 11 10 10 10 11 11 12 12 13 13 13 13 13 14 14 15 15 15 15 16 16 17 17 17 17 17 17 17 16 16 16 16 16 17 18 19 20 21 22 22 23 23 23 22 22 22 22 23 24 25 26 26 28 32 36 38 38 40 43 43 42 43 46 49 51 52 52 49 47 46 45 44 43
12 11 9 7 6 5 6 8 9 11 12 12 12 11 11 10 10 10 10 11 11 11 11 11 12 12 13 13 14 14 14 14 15 16 16 17 16 16 16 15 15 14 13 13 13 14 15 15 16 17 17 18 18 19 20 20 20 20 21 21 22 23 24 24 25 27 31 36 38 38 39 40 40 40 42 44 47 51 54 53 51 49 49 48 48
12 12 11 9 8 6 5 6 7 9 10 11 12 12 11 11 11 11 11 11 11 11 11 11 12 12 13 13 13 13 14 14 14 15 15 16 16 16 16 15 14 14 13 12 12 13 13 14 15 15 15 15 16 16 16 17 18 19 19 19 20 20 21 22 23 24 27 32 37 39 39 40 40 41 42 43 44 46 50 52 52 51 51 50 49
14 13 12 12 11 9 8 7 6 7 8 9 10 11 12 12 12 13 13 13 13 12 12 13 13 13 14 14 14 14 14 14 15 15 15 15 15 16 16 16 15 15 14 14 13 14 14 15 15 15 15 15 15 15 16 17 17 18 18 18 18 18 19 20 21 22 24 26 30 34 37 39 40 41 42 43 42 41 41 44 47 49 50 51 50
14 14 13 12 11 11 10 10 9 8 9 9 10 11 11 11 12 12 13 13 13 13 13 13 14 14 14 15 15 16 16 16 16 16 16 16 16 16 16 17 17 16 16 15 15 15 15 16 16 16 16 16 16 17 17 18 18 19 19 19 19 19 19 20 21 21 22 23 24 26 29 33 36 39 41 42 41 39 38 37 39 42 46 48 48
16 15 14 12 12 12 12 12 11 10 10 10 11 11 11 11 11 12 12 12 13 13 14 15 16 16 16 17 16 16 16 16 16 16 16 16 16 16 16 17 17 17 17 17 17 16 17 17 17 17 18 18 17 18 18 19 19 20 21 21 21 22 22 22 22 22 22 23 23 23 24 26 28 32 36 38 38 38 38 36 34 35 38 40 42
18 18 16 14 13 13 12 12 12 12 12 12 13 13 14 14 14 14 14 14 14 14 15 17 18 18 19 19 18 18 17 17 17 16 16 16 16 15 16 16 16 17 17 18 18 18 18 18 18 18 19 19 19 20 20 21 21 21 22 22 23 24 24 25 25 25 25 25 25 25 24 24 25 26 28 30 33 34 35 34 33 33 34 35 36
21 19 18 15 14 14 14 13 13 13 13 14 15 15 16 16 16 16 16 16 16 17 18 18 18 19 19 20 20 20 20 19 19 19 18 18 17 17 16 16 16 16 16 17 17 18 18 18 18 18 19 20 20 21 22 23 23 24 24 25 25 26 26 27 27 27 27 27 27 27 27 26 26 26 25 26 27 28 29 30 31 31 31 32 33
23 21 20 19 17 16 16 16 15 15 14 15 16 17 17 18 18 18 19 19 20 21 20 20 20 20 20 21 21 22 22 22 21 21 20 20 20 20 20 19 18 18 18 18 18 19 19 19 19 19 19 20 20 21 22 23 24 24 25 26 27 28 28 29 29 30 30 30 30 30 30 29 29 28 28 27 27 27 27 28 29 30 30 30 30
24 22 21 21 20 18 18 17 17 17 17 17 18 18 19 20 20 20 21 22 23 24 24 24 23 22 21 22 22 23 23 22 22 22 22 23 23 23 23 23 23 22 21 21 21 21 21 21 21 21 21 21 21 21 22 23 25 25 26 27 28 29 30 31 31 31 32 32 32 32 32 32 32 31 31 30 30 29 29 30 30 31 31 31 31
23 23 22 21 20 18 18 18 18 18 19 20 20 20 20 21 22 22 22 23 24 25 27 27 26 25 24 23 23 23 23 22 22 22 23 24 25 26 26 27 26 26 25 25 24 23 22 21 22 23 23 22 22 22 22 23 24 26 27 28 28 29 30 31 32 33 33 33 34 35 34 35 35 34 34 34 33 33 33 33 33 33 34 34 35
21 21 22 22 21 21 21 20 20 21 22 23 23 24 23 24 25 25 25 24 24 25 28 29 29 28 27 26 25 25 24 23 22 23 24 25 26 27 28 29 29 29 28 27 26 25 24 24 24 24 25 25 25 25 25 25 25 25 26 28 29 30 30 31 33 34 35 35 35 36 36 36 36 37 37 37 37 36 36 36 36 36 36 37 37
22 22 22 22 22 22 22 21 22 24 25 24 24 25 26 27 29 30 29 28 27 27 28 28 29 30 30 29 29 28 28 27 27 26 27 29 29 30 30 31 32 31 30 29 28 28 28 29 29 29 29 29 29 29 29 29 29 29 29 29 30 32 33 34 34 35 36 36 37 38 38 38 38 38 39 39 39 39 39 39 39 39 39 39 39
22 21 21 21 22 23 24 25 26 26 26 25 25 25 27 28 31 33 33 32 31 31 31 29 27 29 32 32 33 33 33 32 32 32 32 32 32 33 33 33 34 34 34 33 32 32 33 33 34 34 34 33 32 32 33 34 35 35 35 35 34 35 36 37 38 39 39 39 39 39 40 40 39 40 40 41 41 41 41 41 41 41 41 41 41
25 26 29 30 31 32 33 33 29 27 27 28 28 28 28 29 30 32 34 34 34 34 35 33 30 31 33 34 36 36 35 35 34 35 35 35 35 35 35 35 35 36 35 35 35 35 36 36 36 36 37 37 38 39 40 40 41 41 41 40 40 39 39 40 41 42 42 42 41 41 42 43 42 42 42 42 43 43 43 43 43 43 43 43 43
32 35 37 35 33 35 37 35 32 33 34 33 31 31 32 32 33 34 35 35 36 36 37 37 36 36 38 39 39 39 37 37 37 39 40 39 39 39 38 38 38 38 37 38 39 40 40 40 41 41 42 43 44 45 45 45 45 45 44 44 43 43 43 43 43 44 45 45 44 42 43 45 45 44 44 45 45 45 45 45 45 45 45 45 45
33 31 33 33 33 34 35 33 33 34 34 33 32 32 33 34 35 36 37 38 39 40 40 41 42 42 43 43 43 42 42 41 42 43 44 44 43 43 42 40 39 39 41 42 44 45 46 46 47 47 48 48 48 49 49 48 47 46 46 46 45 44 44 44 44 45 48 49 48 46 45 47 48 47 47 47 47 47 47 47 47 47 47 46 46
34 33 34 35 34 33 31 31 33 33 32 32 32 33 34 36 37 38 39 40 41 42 44 45 45 46 46 46 45 44 44 44 44 45 46 46 46 47 46 45 43 44 46 48 50 50 51 52 52 52 52 51 51 50 50 49 48 47 46 46 46 46 45 45 45 45 47 49 50 49 48 50 51 50 49 50 50 49 49 49 50 49 49 49 48
36 37 36 35 34 32 31 32 33 34 35 35 36 37 38 38 39 39 40 41 42 43 44 45 46 46 46 46 46 45 44 44 44 45 46 46 47 47 48 48 48 49 51 52 53 54 54 54 54 53 52 52 51 50 50 49 48 48 47 47 48 48 48 47 47 47 48 49 50 49 49 51 54 53 52 53 53 52 52 52 51 51 51 51 51
38 37 37 36 35 34 33 34 36 38 39 40 41 41 41 40 40 41 41 42 42 43 43 44 44 44 44 44 45 45 45 45 45 46 47 48 48 49 49 49 49 50 51 51 52 52 53 53 53 52 51 51 51 51 51 51 51 51 51 50 50 50 50 50 49 50 51 52 52 51 50 52 54 54 54 56 56 55 55 54 54 53 53 54 53
40 39 38 36 36 36 37 38 39 41 42 43 44 44 44 43 41 41 42 43 43 43 43 44 44 44 45 45 46 47 47 48 48 49 50 51 52 52 53 53 53 53 53 53 53 53 53 54 54 54 54 54 54 54 54 54 54 54 54 54 54 54 53 52 52 52 53 54 55 56 54 53 54 55 55 57 58 58 58 58 57 56 56 56 56
41 40 38 38 38 39 40 41 41 42 44 45 46 47 47 45 43 42 42 43 43 44 44 44 44 45 45 46 47 47 48 49 49 50 51 52 52 53 53 54 54 54 54 54 55 55 55 55 55 56 56 57 57 57 57 57 56 57 56 56 57 57 56 55 54 54 54 56 57 58 58 56 56 56 56 57 58 59 59 60 61 60 59 59 58
42 41 40 40 40 41 41 42 43 44 45 47 48 49 49 48 47 46 44 44 44 44 44 45 45 46 46 47 47 48 49 49 50 51 51 52 52 53 53 53 54 54 54 55 55 55 55 56 57 57 57 58 58 58 58 59 59 59 59 58 58 58 58 57 57 56 56 57 58 60 59 58 59 59 58 59 59 60 61 61 62 63 62 62 62
44 43 42 42 42 42 43 44 45 46 47 48 50 50 50 50 49 48 48 47 46 45 45 45 46 46 47 48 48 49 50 51 51 52 52 53 53 54 54 54 54 54 55 55 55 56 56 57 57 58 58 58 59 59 59 60 61 61 60 60 60 59 59 59 59 59 58 58 60 61 60 60 60 60 61 61 60 60 62 62 63 64 64 65 65
Wind_Direction
272 272 272 274 273 270 268 264 260 254 247 245 245 248 252 252 249 245 241 237 238 240 242 244 246 247 243 234 228 228 230 232 232 231 233 234 235 236 236 236 238 242 245 245 245 247 247 246 245 246 247 247 248 248 247 247 246 246 247 245 241 237 233 231 231 232 234 236 238 240 244 248 251 254 257 261 265 269 271 275 279 283 289 295 299
262 266 272 273 269 264 261 260 258 252 246 243 246 250 256 257 255 252 248 240 235 237 240 244 249 252 251 246 239 235 233 234 234 233 233 234 235 236 236 236 237 239 243 245 245 245 246 247 246 246 247 248 249 249 248 248 248 248 248 248 247 244 240 238 235 235 236 237 238 240 243 247 251 254 257 260 263 266 269 272 276 278 281 285 289
254 259 265 265 260 254 251 252 252 249 244 241 242 247 253 257 258 257 251 244 237 238 242 246 250 253 253 251 247 243 238 236 236 236 236 235 236 237 238 237 238 239 241 244 245 245 246 247 248 248 248 249 250 251 250 250 249 249 249 249 250 248 246 244 241 238 238 238 239 240 242 246 250 253 257 260 263 266 269 272 275 278 281 282 284
258 253 252 250 244 242 243 245 244 242 239 235 235 240 246 251 255 256 255 255 253 251 249 250 253 255 255 254 252 250 245 241 240 241 242 240 239 239 239 238 239 240 242 243 245 245 246 247 248 248 249 250 251 252 252 252 251 251 252 252 252 252 251 249 246 244 242 241 240 240 243 246 250 254 258 262 266 268 271 273 275 277 278 279 281
252 239 235 235 233 234 236 239 238 234 231 229 229 231 238 246 253 256 258 259 261 260 259 257 258 259 260 259 258 256 251 246 243 243 245 244 242 241 242 241 240 240 241 244 245 245 246 246 248 249 249 250 251 251 252 253 253 253 253 253 253 253 253 252 251 249 247 245 244 243 244 247 250 254 258 263 267 270 272 273 273 274 274 276 278
238 226 225 224 222 226 228 229 229 226 223 223 224 226 234 242 249 254 256 257 259 262 263 263 261 261 263 263 261 259 255 251 245 244 244 245 244 243 244 244 243 241 241 243 245 245 245 245 247 249 249 250 251 250 250 252 253 253 253 254 254 255 255 255 254 253 251 250 249 248 248 249 251 254 257 262 266 270 272 272 272 272 272 274 276
232 225 222 219 216 218 219 216 214 213 215 217 220 224 233 242 245 249 250 251 253 258 261 262 261 261 263 261 259 259 260 257 251 247 245 245 244 243 244 246 246 245 242 242 243 243 243 244 245 247 248 249 250 249 248 249 250 252 253 253 255 256 257 257 257 256 255 255 253 252 251 251 253 256 259 261 265 268 270 271 271 271 272 273 275
229 226 222 220 217 214 212 210 208 208 209 212 221 225 231 240 244 247 248 248 250 252 255 258 259 260 262 260 258 260 261 260 258 253 250 248 246 245 245 247 249 250 247 244 243 243 243 242 243 246 247 247 249 249 247 246 247 249 251 253 255 257 258 259 259 258 258 258 257 255 253 253 255 258 261 263 265 267 268 270 271 272 272 274 274
232 228 226 224 219 215 213 212 211 210 208 211 221 226 229 238 242 244 247 250 252 253 253 254 257 260 261 260 259 260 259 257 256 255 252 251 251 249 248 248 250 252 252 248 244 243 242 241 243 245 248 249 250 251 250 248 247 248 250 251 254 256 258 259 259 260 260 260 259 257 256 255 256 258 262 266 267 267 267 268 270 272 273 274 274
238 234 231 227 223 219 214 215 214 211 211 215 220 224 228 235 240 241 244 248 251 253 253 252 253 255 257 257 256 256 257 255 253 253 254 253 252 251 249 249 251 252 251 248 245 243 241 239 241 245 248 250 252 253 253 253 251 251 251 251 253 255 257 258 258 259 260 261 260 259 258 258 258 260 262 265 267 267 266 267 269 271 273 274 274
244 239 232 227 227 223 217 219 219 215 220 227 223 220 227 235 240 241 241 243 246 249 251 251 250 250 251 252 251 251 254 257 257 256 257 256 253 253 250 249 251 252 251 248 245 243 241 238 240 243 246 249 252 253 254 255 254 253 253 252 253 255 256 257 257 258 259 261 261 260 260 260 261 261 263 264 265 265 266 267 269 271 273 273 273
248 239 231 230 229 227 224 226 225 221 228 236 228 220 226 235 240 242 239 239 242 245 247 247 247 246 246 248 249 250 251 256 259 257 256 256 257 256 253 251 252 252 254 252 246 243 241 239 239 242 244 247 250 252 254 255 256 256 256 255 254 255 256 256 256 256 258 260 261 261 262 263 263 263 263 263 264 265 266 268 270 272 272 271 271
253 243 235 233 231 231 233 233 230 226 227 231 227 223 225 229 236 240 239 236 239 242 243 244 244 243 242 244 246 247 246 249 253 255 256 257 257 255 252 251 251 252 254 253 248 244 242 241 240 242 244 247 249 250 252 254 255 256 257 258 257 256 257 256 255 254 255 257 259 260 261 262 263 263 263 263 263 264 266 268 269 270 270 270 270
256 249 242 237 234 233 233 231 228 224 223 224 226 229 231 231 234 238 237 234 236 239 240 241 241 239 239 240 243 243 243 245 249 255 258 257 255 253 251 250 249 250 251 252 250 246 244 243 243 244 245 248 250 251 251 253 254 255 256 257 257 257 258 256 254 253 253 255 257 258 259 261 262 262 262 261 262 263 264 266 268 269 269 269 269
255 250 246 243 241 239 237 234 229 226 225 225 227 232 236 238 237 237 238 235 236 240 242 243 241 237 237 239 241 243 244 246 250 255 258 254 249 247 248 249 248 247 248 249 250 249 247 245 246 248 248 248 250 252 253 253 254 254 254 254 255 255 256 256 255 253 253 254 255 256 258 259 261 261 261 261 261 262 264 265 267 267 267 267 268
248 248 246 242 242 242 241 240 238 236 234 232 231 232 235 238 239 239 239 239 238 240 243 244 242 238 239 241 242 245 247 250 252 254 255 253 247 243 242 245 246 246 245 246 246 247 247 247 247 249 251 251 252 253 254 255 255 255 254 253 252 252 253 255 255 254 254 254 254 255 256 257 259 261 262 262 262 263 264 265 265 266 265 266 267
242 242 243 241 240 239 239 240 240 241 240 237 235 235 235 238 240 239 238 240 241 241 240 243 244 241 242 246 246 247 248 251 254 254 255 256 254 251 248 247 248 248 248 247 247 246 245 246 247 250 252 253 255 255 255 256 257 256 256 254 251 250 251 252 252 252 253 254 253 254 255 256 258 261 262 262 263 264 264 264 263 264 264 265 267
245 240 238 237 237 236 237 238 239 239 239 238 237 236 235 236 239 238 237 237 240 243 242 242 245 245 246 250 251 252 251 252 255 256 257 258 259 259 258 257 256 255 253 251 250 249 247 246 247 250 253 255 257 257 257 259 260 259 260 259 255 250 248 249 250 251 251 251 251 252 253 255 257 259 261 262 263 264 264 264 264 264 264 265 266
254 245 239 236 234 234 236 236 238 239 239 239 237 237 235 234 238 240 240 239 239 244 245 242 243 246 248 250 251 252 254 255 256 258 259 260 261 261 261 261 261 259 257 255 253 252 251 250 250 251 254 257 258 258 258 260 261 260 262 264 261 254 247 246 248 249 250 250 249 250 251 253 254 256 257 259 261 263 263 264 265 265 265 264 264
258 249 242 238 236 234 235 236 238 240 240 240 239 238 236 235 238 241 242 242 242 245 246 246 249 251 251 252 252 251 254 255 256 258 260 261 261 262 262 262 263 262 260 258 257 255 254 254 253 254 257 257 255 253 254 256 257 258 259 260 264 261 250 245 246 248 250 250 249 250 251 251 252 253 255 257 260 262 264 265 264 264 264 263 263
257 251 243 238 236 235 235 236 238 240 241 242 242 241 240 238 239 241 242 244 245 246 246 248 252 254 253 255 256 255 255 256 257 258 259 260 262 262 263 263 264 263 262 261 260 258 256 253 253 256 258 257 255 253 252 251 250 253 255 255 260 260 249 242 244 247 249 250 250 251 252 253 254 254 254 255 257 259 262 263 261 260 261 262 263
254 251 245 238 235 234 235 236 239 240 242 244 245 245 244 243 242 242 243 244 245 246 247 249 252 254 255 257 257 257 257 258 258 259 260 261 262 262 263 263 263 262 263 263 262 260 256 251 252 255 255 253 254 255 253 250 249 250 252 254 256 256 248 242 242 245 248 250 252 253 253 254 255 255 255 254 254 255 256 258 260 260 260 260 260
252 249 244 240 237 234 234 236 239 241 243 244 245 245 245 246 246 246 246 247 248 249 250 252 253 255 256 257 258 259 259 260 261 262 263 263 264 264 264 263 263 263 263 263 261 259 254 249 249 251 250 248 251 253 253 253 252 251 252 255 258 259 253 245 242 244 246 248 251 251 252 253 253 253 255 255 254 254 254 256 258 260 261 260 260
253 248 242 239 237 234 232 233 236 239 242 244 245 245 246 246 248 249 249 250 250 251 252 253 254 255 256 257 258 259 261 263 264 265 266 266 267 267 267 266 265 264 265 264 261 259 255 250 247 247 248 251 253 254 256 256 255 255 254 255 257 257 253 247 244 244 243 243 245 247 249 251 251 251 252 252 252 253 254 254 255 257 259 260 260
253 248 241 237 236 232 229 230 232 236 239 242 244 245 245 246 247 247 248 249 250 251 252 253 253 254 255 257 259 261 263 265 265 266 266 266 267 268 268 267 266 265 265 265 263 260 257 252 250 249 251 255 258 259 260 259 257 256 256 254 254 253 251 249 247 247 245 243 243 245 249 250 249 247 249 250 250 252 254 254 255 256 259 260 261
255 249 240 235 234 231 230 230 232 237 239 242 246 247 248 249 248 248 249 249 249 250 251 252 254 255 256 257 258 260 262 263 264 265 265 265 265 266 265 265 265 265 264 263 262 260 258 255 253 253 255 258 261 263 263 261 259 258 258 257 256 254 253 250 247 248 248 247 245 246 249 253 252 250 251 253 253 254 255 256 255 256 259 260 261
257 250 241 235 233 234 234 235 236 239 240 241 244 247 249 251 251 252 252 252 252 253 253 254 255 255 256 257 257 258 259 260 262 262 262 263 263 263 263 263 263 264 263 262 261 259 258 257 256 256 257 259 261 263 263 262 261 260 260 261 260 259 257 254 249 247 246 247 247 247 249 253 256 255 254 256 256 257 257 257 256 257 258 261 263
258 253 244 236 239 243 243 244 244 243 243 242 242 242 243 244 248 251 253 254 255 255 256 256 256 256 257 257 258 258 258 258 260 260 260 260 261 261 261 261 260 260 260 259 259 259 257 257 257 257 258 259 260 262 262 262 261 260 261 262 263 263 261 259 256 251 247 245 247 249 250 252 256 259 259 258 258 258 258 257 258 258 259 261 264
256 255 248 240 239 247 254 254 251 248 245 243 241 241 240 239 241 246 250 254 257 258 259 259 258 259 259 260 261 261 261 261 261 261 261 261 262 262 261 260 259 258 257 255 255 257 256 256 257 258 259 259 259 261 263 263 263 262 262 263 264 264 264 263 260 257 252 247 246 249 251 252 255 257 259 259 258 257 257 256 256 257 259 260 262
253 255 252 244 232 226 234 247 252 252 249 247 247 244 243 240 239 241 245 249 253 256 259 261 261 261 262 263 263 264 263 263 262 262 263 263 264 264 264 263 262 260 257 254 252 252 253 254 256 257 259 260 260 261 262 264 265 265 266 265 265 264 265 265 263 260 257 253 250 251 252 253 253 253 254 256 257 258 257 256 255 255 256 258 259
252 255 255 251 242 232 228 233 241 249 251 252 254 253 251 249 246 244 243 243 245 248 252 256 259 262 265 266 267 269 269 268 268 267 268 268 267 268 268 267 266 264 262 258 255 253 252 253 256 257 259 260 262 262 261 262 264 266 266 266 265 265 265 266 266 264 262 259 256 255 255 255 254 253 254 255 255 257 257 257 256 254 255 256 257
260 259 257 256 254 247 241 239 240 244 249 253 254 254 253 252 252 251 250 250 250 252 255 259 263 266 269 271 273 275 276 277 277 277 276 276 275 274 274 274 273 271 269 267 264 262 259 256 257 260 262 263 265 266 266 266 267 268 269 269 268 267 267 267 268 269 269 268 266 264 263 262 260 257 256 256 255 253 252 253 252 252 253 254 254
265 261 256 254 253 252 251 251 255 256 257 259 257 254 251 250 251 251 252 256 258 262 266 268 270 271 271 271 271 272 273 274 275 275 275 274 274 274 274 275 276 276 276 275 273 271 270 268 265 265 266 267 269 271 272 271 272 272 274 276 276 274 272 271 270 271 272 273 274 274 273 273 271 267 262 259 256 252 250 250 250 250 251 251 251
259 255 253 252 251 252 255 257 260 262 262 264 263 259 257 257 257 256 257 258 260 266 272 274 274 274 273 273 272 271 272 272 273 273 273 272 271 271 270 271 273 275 276 277 276 275 275 274 274 273 273 272 273 274 275 276 275 274 274 274 276 277 277 276 275 275 275 275 275 276 276 277 278 278 273 266 260 254 250 248 249 251 251 251 250
251 248 247 250 251 252 254 254 256 259 261 264 265 264 264 264 264 266 268 268 269 272 274 275 274 273 273 273 273 274 273 273 272 272 274 274 273 270 268 268 269 271 273 275 277 277 275 273 272 274 275 275 276 276 277 278 279 278 277 275 274 274 274 275 275 275 275 275 276 276 277 277 276 277 277 274 268 260 252 249 249 251 252 252 252
257 252 245 243 247 249 252 254 254 257 259 260 262 263 265 267 267 270 272 274 275 275 275 274 272 271 270 269 269 270 270 270 270 271 272 272 272 271 270 269 269 270 273 276 279 282 282 281 279 278 279 279 279 280 280 280 280 280 280 279 278 277 275 274 274 274 273 273 273 274 275 276 276 276 275 274 272 267 261 256 253 253 254 254 255
266 263 251 243 246 249 251 254 255 257 258 258 260 262 264 266 266 269 272 273 275 275 274 272 270 268 265 263 263 263 263 265 265 267 268 269 270 270 270 270 270 270 272 274 277 279 281 283 284 284 284 283 283 284 284 285 284 283 282 281 280 280 279 278 276 275 275 274 273 273 273 274 274 275 275 274 272 270 267 264 261 259 258 258 259
268 265 253 245 245 245 246 253 257 257 259 260 262 262 262 264 265 267 270 274 276 277 276 272 268 267 263 261 261 260 260 261 262 263 265 266 268 269 270 270 270 271 272 272 273 273 274 279 282 284 285 286 287 288 288 289 289 288 288 287 285 283 282 282 280 278 277 276 275 274 273 272 272 272 272 272 271 270 269 267 265 264 262 262 262
259 260 254 245 245 249 252 256 260 261 263 268 269 268 265 263 263 264 269 273 274 276 279 273 265 263 263 261 261 261 260 260 263 267 269 271 271 272 272 271 270 270 270 271 271 270 272 277 280 282 285 287 289 291 291 291 291 290 291 291 291 290 289 288 286 284 281 279 277 276 275 273 273 272 271 270 269 269 268 267 266 265 265 264 264
251 255 253 242 241 247 253 261 266 266 266 270 273 275 273 269 266 267 270 273 271 273 280 276 264 260 262 263 264 264 263 262 265 269 275 278 277 276 275 273 271 269 268 270 271 271 274 277 279 281 283 284 285 286 288 289 290 289 289 289 290 291 292 292 292 290 288 285 282 279 277 275 274 273 272 271 270 268 267 267 266 266 265 265 265
245 248 253 251 247 249 258 269 272 266 264 266 268 273 277 275 273 271 272 275 274 274 278 277 268 263 264 265 266 266 265 265 266 270 277 281 280 278 276 274 272 270 268 268 269 271 275 278 279 280 281 282 282 283 285 286 287 287 287 286 285 286 287 288 289 290 289 288 287 284 281 278 276 274 273 272 271 270 269 268 267 266 265 265 265
248 260 268 271 267 265 270 273 267 262 266 270 269 271 274 274 274 274 274 275 275 274 275 274 271 268 268 269 270 270 267 266 266 270 277 280 279 277 276 273 271 269 267 266 266 270 275 277 277 278 279 281 282 282 283 284 285 285 284 283 282 281 281 281 282 284 285 285 285 284 282 281 279 277 275 273 272 271 270 269 268 267 266 265 264
269 274 274 273 269 268 271 271 266 265 271 274 273 272 272 272 272 272 273 273 273 272 273 273 272 270 270 271 272 273 271 268 268 271 275 278 277 275 274 272 269 267 265 264 265 269 272 274 275 276 278 279 281 282 282 283 283 283 282 281 280 279 278 277 277 277 278 279 279 278 277 278 279 278 277 275 273 271 270 270 268 268 267 266 265
272 270 269 270 269 268 270 270 269 269 272 274 275 275 274 273 272 271 270 270 271 271 271 271 272 272 272 272 273 273 273 272 271 272 274 275 274 273 272 270 267 265 263 263 264 266 270 272 274 275 276 278 279 280 281 282 282 282 281 281 280 278 277 276 274 273 273 274 275 273 271 272 274 274 274 274 274 272 271 270 269 268 267 266 265
266 262 264 268 270 271 272 270 269 270 272 274 275 277 276 275 272 271 270 269 269 268 269 269 270 271 272 273 274 274 273 273 273 272 272 272 271 270 269 268 266 265 264 264 265 267 269 271 273 274 275 277 277 278 279 280 280 280 280 280 280 279 278 277 276 273 271 272 273 271 269 268 268 269 269 270 271 271 270 270 270 269 268 267 266
266 266 266 267 268 271 272 271 271 274 275 276 277 279 279 277 274 271 270 269 268 268 268 269 269 270 271 272 273 273 273 272 272 272 271 271 271 270 269 268 267 267 266 267 268 269 270 272 273 274 275 276 277 277 277 277 277 277 278 278 277 277 277 277 277 275 273 273 273 271 269 266 266 266 266 265 266 267 267 267 268 268 268 267 266
268 268 268 269 270 272 274 275 277 279 280 280 281 282 282 281 278 274 272 271 270 270 270 271 271 272 272 272 272 272 272 272 271 272 272 272 273 273 273 272 271 270 270 270 271 271 272 273 274 275 275 275 275 276 276 276 277 277 277 277 276 276 276 276 275 275 275 275 274 273 270 267 265 265 264 262 262 262 263 263 264 265 265 266 266
271 270 270 272 274 277 279 281 282 282 283 283 284 284 285 284 281 277 274 273 273 272 272 273 273 273 273 273 273 274 274 273 273 273 273 273 273 274 274 273 273 273 273 273 273 273 273 273 274 275 275 275 275 275 275 276 276 276 277 276 275 275 274 273 272 272 272 272 273 273 271 268 266 265 264 262 260 259 260 260 261 261 262 263 264
273 271 270 274 276 278 280 282 283 283 284 284 285 285 286 285 283 279 275 273 272 272 272 272 272 273 273 273 273 273 273 273 273 273 273 273 273 273 272 272 273 273 273 273 273 273 272 272 273 273 274 274 274 275 275 274 274 274 274 274 274 273 273 273 271 269 268 268 269 269 270 269 267 266 264 263 262 260 259 258 259 258 258 259 260
271 269 270 274 277 278 280 281 282 283 283 284 285 285 285 285 284 282 279 276 274 273 272 272 272 272 273 273 273 273 274 273 274 274 274 274 274 274 274 274 274 274 274 274 273 273 273 272 272 272 272 273 273 273 273 273 272 272 272 272 271 271 272 271 271 269 268 267 266 266 267 267 267 266 265 263 263 262 261 259 259 258 258 257 257
267 267 270 274 277 279 280 280 281 282 282 282 283 283 283 283 283 282 281 279 278 277 277 276 275 275 275 275 275 275 276 276 276 277 277 277 277 276 276 276 275 275 274 274 273 273 273 272 272 272 272 272 271 271 271 271 271 271 271 271 271 271 271 270 270 269 268 267 266 266 266 266 266 266 265 264 263 263 262 262 260 260 259 258 257
Height
5794 5794 5794 5795 5795 5796 5796 5797 5797 5798 5799 5800 5800 5801 5801 5801 5801 5801 5802 5802 5802 5803 5803 5804 5804 5805 5807 5809 5810 5810 5810 5811 5811 5812 5812 5812 5813 5814 5815 5816 5818 5818 5819 5820 5821 5822 5823 5825 5826 5827 5828 5829 5830 5831 5831 5832 5833 5833 5834 5835 5835 5835 5835 5836 5837 5838 5839 5840 5841 5842 5842 5843 5844 5844 5844 5845 5845 5845 5846 5846 5846 5846 5846 5846 5846
5791 5791 5792 5793 5793 5794 5794 5795 5795 5796 5797 5798 5799 5800 5800 5800 5800 5800 5800 5801 5801 5802 5802 5802 5803 5804 5805 5807 5807 5808 5808 5808 5809 5809 5809 5810 5810 5811 5812 5813 5814 5815 5816 5817 5819 5820 5821 5822 5823 5824 5825 5827 5828 5829 5830 5830 5831 5831 5832 5833 5834 5834 5834 5834 5835 5836 5837 5838 5839 5840 5841 5842 5843 5843 5843 5844 5844 5844 5845 5845 5845 5845 5846 5846 5846
5789 5789 5789 5790 5791 5791 5792 5793 5793 5794 5795 5796 5797 5798 5798 5798 5798 5799 5799 5799 5800 5800 5801 5801 5801 5802 5803 5804 5805 5805 5806 5806 5806 5807 5807 5807 5808 5808 5809 5810 5811 5812 5813 5814 5816 5817 5818 5819 5820 5822 5823 5824 5826 5827 5828 5829 5829 5830 5831 5831 5832 5832 5832 5833 5834 5835 5836 5837 5838 5839 5840 5841 5841 5842 5842 5843 5843 5843 5844 5844 5844 5844 5845 5845 5845
5787 5787 5788 5788 5789 5789 5789 5790 5791 5792 5793 5794 5795 5796 5796 5797 5797 5797 5797 5798 5798 5798 5799 5799 5800 5800 5801 5802 5802 5803 5803 5804 5804 5804 5804 5805 5806 5806 5806 5807 5808 5809 5810 5811 5813 5814 5816 5817 5818 5819 5821 5822 5823 5824 5826 5827 5828 5828 5829 5830 5830 5831 5831 5831 5832 5833 5834 5835 5836 5837 5838 5839 5840 5841 5841 5842 5842 5842 5843 5843 5843 5843 5843 5843 5844
5785 5786 5786 5787 5787 5787 5787 5788 5789 5790 5791 5792 5793 5793 5794 5794 5795 5796 5796 5796 5796 5796 5797 5797 5798 5798 5799 5799 5800 5800 5801 5801 5802 5802 5802 5803 5803 5803 5804 5804 5805 5806 5807 5808 5810 5811 5813 5814 5815 5817 5818 5819 5820 5822 5823 5824 5825 5826 5827 5828 5828 5829 5830 5830 5830 5831 5832 5833 5835 5836 5837 5838 5839 5839 5840 5841 5841 5841 5841 5841 5841 5842 5842 5842 5842
5785 5785 5785 5785 5785 5785 5786 5787 5787 5788 5789 5790 5790 5791 5792 5792 5793 5794 5794 5794 5794 5794 5795 5795 5796 5796 5797 5797 5798 5798 5798 5798 5799 5799 5800 5800 5801 5801 5801 5802 5802 5803 5804 5805 5807 5808 5810 5811 5813 5814 5815 5816 5817 5818 5820 5821 5822 5823 5825 5825 5826 5827 5828 5828 5829 5830 5831 5832 5833 5834 5835 5836 5837 5838 5838 5839 5839 5840 5840 5840 5840 5840 5840 5840 5841
5784 5784 5784 5784 5784 5784 5785 5785 5785 5786 5787 5788 5788 5789 5790 5790 5791 5792 5792 5793 5793 5793 5793 5793 5794 5794 5795 5795 5796 5796 5796 5796 5796 5797 5797 5798 5798 5799 5799 5799 5799 5800 5801 5802 5803 5805 5807 5808 5810 5811 5812 5813 5814 5815 5816 5818 5819 5820 5822 5823 5824 5825 5826 5826 5827 5828 5829 5830 5831 5832 5833 5834 5835 5836 5836 5837 5837 5838 5838 5838 5838 5838 5838 5839 5839
5783 5783 5783 5783 5782 5783 5783 5783 5783 5784 5785 5786 5786 5787 5787 5788 5789 5790 5790 5791 5791 5791 5791 5791 5792 5793 5793 5793 5794 5794 5794 5794 5794 5795 5795 5795 5796 5796 5796 5796 5797 5798 5798 5799 5801 5802 5804 5805 5807 5808 5809 5810 5811 5812 5813 5814 5816 5817 5818 5820 5821 5822 5823 5824 5825 5826 5827 5827 5829 5830 5831 5832 5832 5833 5834 5834 5835 5836 5836 5836 5836 5836 5837 5837 5837
5782 5782 5782 5782 5782 5781 5781 5781 5781 5781 5782 5783 5783 5784 5785 5786 5787 5787 5788 5789 5789 5789 5790 5790 5790 5791 5791 5792 5792 5792 5792 5792 5793 5793 5793 5792 5793 5794 5794 5794 5795 5795 5796 5797 5798 5799 5801 5802 5804 5805 5806 5808 5808 5809 5810 5811 5813 5814 5815 5816 5818 5819 5820 5821 5822 5824 5824 5825 5826 5827 5828 5829 5830 5830 5831 5831 5832 5833 5833 5834 5834 5834 5835 5835 5835
5781 5781 5781 5781 5781 5780 5779 5779 5779 5780 5780 5781 5781 5782 5783 5783 5784 5786 5786 5787 5787 5787 5788 5788 5789 5789 5790 5790 5790 5790 5789 5790 5792 5792 5791 5790 5790 5791 5791 5792 5792 5793 5793 5794 5795 5796 5798 5799 5801 5802 5804 5805 5806 5807 5808 5809 5810 5811 5812 5813 5815 5816 5817 5818 5819 5820 5822 5822 5823 5824 5825 5826 5827 5827 5828 5829 5829 5830 5831 5831 5832 5832 5833 5833 5833
5780 5781 5780 5780 5780 5778 5778 5778 5778 5780 5779 5779 5779 5780 5781 5782 5782 5783 5784 5785 5785 5785 5786 5786 5787 5788 5788 5788 5788 5788 5787 5787 5789 5790 5789 5788 5788 5788 5789 5789 5790 5790 5790 5791 5792 5793 5794 5796 5797 5799 5800 5802 5803 5804 5805 5806 5807 5808 5809 5810 5811 5812 5813 5814 5815 5817 5818 5819 5820 5821 5822 5822 5823 5824 5825 5826 5826 5827 5827 5828 5829 5829 5830 5830 5831
5778 5779 5779 5779 5778 5777 5777 5778 5778 5779 5778 5778 5779 5779 5780 5780 5781 5781 5782 5783 5784 5784 5784 5784 5785 5786 5786 5786 5786 5786 5785 5785 5786 5787 5787 5786 5785 5786 5787 5787 5787 5787 5788 5788 5789 5790 5791 5793 5794 5795 5797 5798 5799 5801 5802 5803 5804 5805 5805 5806 5808 5809 5810 5811 5812 5813 5815 5816 5817 5817 5819 5819 5820 5821 5822 5823 5823 5824 5824 5825 5826 5826 5827 5828 5828
5776 5777 5777 5777 5777 5776 5776 5777 5777 5777 5777 5777 5778 5778 5778 5778 5779 5780 5780 5781 5781 5782 5782 5782 5783 5783 5784 5784 5784 5784 5784 5783 5784 5784 5785 5784 5783 5784 5785 5785 5785 5785 5786 5786 5787 5788 5789 5790 5791 5792 5793 5794 5795 5797 5798 5800 5801 5802 5802 5803 5804 5805 5806 5807 5808 5809 5811 5812 5813 5814 5815 5816 5817 5818 5819 5820 5820 5821 5822 5822 5823 5823 5824 5825 5825
5775 5775 5775 5775 5775 5775 5775 5776 5776 5776 5776 5776 5776 5776 5776 5776 5776 5777 5778 5779 5779 5780 5780 5780 5781 5781 5782 5782 5782 5782 5782 5781 5781 5782 5782 5782 5781 5781 5782 5782 5783 5783 5784 5784 5785 5786 5786 5787 5788 5789 5790 5791 5792 5793 5795 5796 5797 5798 5799 5800 5801 5802 5802 5803 5804 5805 5807 5808 5809 5811 5812 5813 5814 5814 5815 5816 5817 5818 5819 5819 5820 5820 5821 5821 5822
5773 5773 5773 5773 5773 5773 5773 5774 5774 5774 5775 5775 5774 5773 5774 5774 5775 5776 5777 5777 5777 5777 5778 5778 5779 5780 5780 5780 5780 5780 5779 5779 5779 5779 5779 5780 5779 5779 5780 5780 5781 5782 5782 5782 5782 5782 5783 5784 5785 5786 5787 5788 5789 5790 5791 5792 5793 5794 5795 5796 5797 5798 5798 5799 5800 5801 5803 5804 5806 5807 5808 5810 5810 5811 5812 5813 5814 5814 5815 5815 5816 5817 5817 5818 5818
5770 5770 5771 5771 5771 5771 5771 5772 5772 5772 5772 5772 5772 5772 5772 5773 5773 5775 5775 5776 5775 5775 5775 5776 5777 5778 5778 5778 5778 5777 5777 5777 5776 5776 5777 5777 5777 5778 5778 5778 5779 5780 5780 5780 5780 5780 5780 5781 5782 5783 5783 5784 5786 5787 5787 5788 5789 5790 5791 5792 5793 5794 5795 5796 5797 5798 5799 5801 5802 5803 5805 5806 5807 5808 5809 5809 5810 5811 5811 5812 5812 5813 5814 5814 5815
5769 5768 5768 5768 5769 5769 5769 5769 5770 5770 5770 5770 5770 5771 5771 5771 5772 5773 5773 5773 5773 5772 5773 5774 5774 5775 5776 5776 5776 5775 5775 5775 5774 5774 5774 5775 5775 5776 5776 5776 5777 5777 5778 5778 5777 5777 5778 5778 5779 5780 5780 5781 5782 5783 5783 5783 5785 5786 5787 5787 5788 5790 5791 5792 5793 5794 5796 5798 5799 5800 5801 5802 5803 5804 5805 5806 5807 5807 5808 5808 5809 5809 5810 5811 5811
5767 5767 5767 5767 5767 5767 5767 5768 5768 5768 5769 5769 5769 5769 5769 5770 5769 5770 5770 5771 5770 5769 5770 5772 5772 5773 5773 5773 5774 5773 5773 5773 5772 5772 5772 5772 5773 5773 5773 5774 5774 5774 5775 5775 5774 5774 5775 5776 5777 5778 5778 5778 5778 5778 5779 5780 5780 5781 5782 5783 5783 5785 5787 5788 5790 5791 5793 5795 5796 5796 5797 5798 5799 5800 5801 5802 5803 5803 5804 5804 5805 5806 5807 5807 5808
5765 5765 5765 5765 5765 5765 5766 5766 5766 5767 5767 5767 5767 5767 5767 5768 5767 5767 5768 5768 5768 5767 5767 5768 5768 5770 5771 5770 5771 5770 5770 5770 5770 5770 5770 5770 5770 5770 5770 5770 5771 5771 5771 5771 5771 5772 5772 5773 5775 5775 5775 5775 5774 5774 5775 5776 5777 5778 5779 5779 5779 5781 5783 5785 5787 5788 5790 5792 5792 5793 5793 5794 5796 5797 5797 5798 5799 5799 5800 5801 5802 5803 5803 5804 5804
5762 5762 5763 5763 5763 5763 5764 5764 5764 5764 5765 5765 5765 5765 5765 5766 5765 5765 5765 5766 5766 5765 5765 5765 5765 5767 5767 5767 5767 5768 5768 5768 5768 5768 5768 5768 5768 5768 5768 5768 5768 5768 5768 5768 5769 5769 5770 5770 5771 5771 5771 5770 5770 5770 5771 5772 5773 5775 5776 5776 5776 5777 5779 5781 5783 5785 5787 5788 5789 5789 5790 5791 5792 5793 5793 5794 5795 5796 5797 5797 5798 5798 5799 5800 5801
5759 5759 5760 5760 5761 5761 5761 5761 5762 5762 5763 5763 5763 5763 5763 5764 5763 5763 5763 5763 5764 5764 5764 5764 5764 5765 5765 5765 5765 5765 5765 5765 5765 5765 5765 5765 5765 5765 5765 5765 5765 5765 5765 5765 5766 5767 5767 5767 5767 5767 5767 5767 5767 5768 5768 5769 5770 5771 5772 5773 5774 5774 5775 5777 5780 5782 5783 5785 5786 5786 5787 5788 5788 5789 5790 5791 5791 5793 5794 5793 5793 5794 5795 5796 5797
5756 5756 5757 5757 5758 5758 5758 5759 5759 5760 5761 5761 5761 5761 5761 5761 5761 5761 5761 5761 5762 5762 5762 5762 5762 5763 5763 5763 5763 5763 5763 5762 5762 5762 5762 5762 5762 5762 5762 5762 5762 5762 5762 5762 5763 5764 5764 5764 5764 5764 5764 5764 5765 5766 5766 5767 5767 5768 5769 5770 5770 5771 5772 5773 5775 5777 5779 5781 5783 5783 5783 5783 5784 5785 5786 5786 5787 5789 5790 5789 5789 5791 5792 5793 5794
5753 5753 5754 5754 5754 5755 5755 5756 5756 5757 5758 5758 5759 5759 5759 5759 5759 5759 5759 5759 5759 5760 5760 5760 5761 5761 5760 5760 5760 5760 5760 5760 5760 5759 5759 5759 5759 5759 5759 5759 5759 5759 5759 5759 5760 5760 5761 5761 5761 5761 5761 5761 5762 5763 5763 5764 5764 5765 5765 5765 5766 5767 5769 5769 5771 5773 5776 5778 5778 5778 5777 5777 5779 5781 5781 5782 5784 5785 5786 5786 5786 5787 5788 5789 5790
5751 5751 5751 5751 5752 5752 5753 5753 5754 5754 5755 5756 5756 5756 5757 5757 5757 5757 5757 5757 5757 5757 5758 5758 5758 5758 5758 5758 5758 5757 5757 5757 5757 5757 5757 5757 5756 5756 5756 5756 5757 5757 5757 5757 5757 5757 5757 5757 5758 5758 5758 5758 5759 5760 5760 5761 5761 5761 5762 5762 5762 5763 5764 5765 5767 5768 5770 5771 5771 5771 5772 5772 5774 5776 5776 5777 5779 5779 5780 5782 5782 5782 5783 5785 5786
5749 5749 5749 5749 5750 5750 5750 5751 5751 5752 5753 5753 5754 5754 5754 5755 5755 5755 5755 5755 5755 5755 5755 5755 5755 5755 5755 5755 5755 5755 5755 5755 5754 5754 5754 5754 5754 5754 5754 5754 5754 5754 5754 5754 5754 5754 5754 5755 5755 5755 5755 5755 5756 5756 5757 5757 5757 5758 5758 5758 5759 5759 5760 5761 5762 5763 5764 5765 5765 5767 5768 5767 5769 5771 5772 5772 5774 5774 5775 5777 5778 5778 5779 5781 5782
5747 5747 5747 5747 5748 5748 5749 5749 5750 5750 5751 5752 5752 5752 5752 5753 5753 5753 5753 5752 5752 5752 5753 5753 5753 5752 5752 5752 5752 5752 5752 5752 5752 5752 5752 5752 5752 5751 5751 5752 5752 5752 5752 5752 5752 5752 5752 5752 5752 5752 5752 5753 5753 5753 5753 5753 5754 5754 5755 5755 5755 5756 5757 5757 5758 5759 5759 5760 5762 5764 5765 5764 5765 5767 5767 5768 5770 5771 5772 5774 5775 5775 5775 5777 5778
5745 5745 5745 5745 5746 5746 5747 5748 5748 5749 5750 5750 5750 5750 5751 5751 5751 5751 5751 5751 5751 5751 5751 5751 5750 5750 5750 5750 5750 5750 5750 5750 5750 5750 5750 5750 5750 5749 5749 5749 5749 5749 5750 5750 5749 5749 5749 5750 5749 5749 5750 5750 5750 5750 5750 5750 5751 5752 5752 5752 5753 5753 5753 5754 5754 5754 5755 5756 5758 5759 5761 5761 5762 5762 5763 5764 5765 5767 5768 5770 5772 5772 5772 5772 5773
5743 5743 5743 5743 5744 5745 5746 5746 5747 5748 5749 5749 5749 5749 5749 5749 5749 5749 5749 5749 5749 5749 5749 5749 5749 5749 5749 5749 5748 5748 5748 5748 5748 5748 5748 5748 5748 5748 5747 5747 5747 5747 5748 5748 5747 5747 5747 5748 5747 5747 5748 5748 5748 5748 5748 5748 5749 5749 5750 5750 5750 5750 5750 5750 5750 5751 5752 5753 5754 5755 5756 5757 5758 5758 5758 5759 5760 5761 5763 5765 5767 5768 5768 5768 5768
5741 5740 5740 5741 5742 5743 5744 5745 5745 5746 5747 5747 5747 5747 5747 5747 5747 5748 5748 5748 5748 5748 5748 5748 5748 5747 5747 5747 5747 5747 5747 5747 5747 5747 5747 5747 5746 5746 5746 5746 5746 5746 5746 5746 5746 5746 5746 5746 5746 5746 5746 5746 5746 5746 5746 5746 5747 5747 5748 5748 5748 5748 5748 5747 5747 5747 5748 5749 5750 5751 5752 5753 5754 5754 5754 5754 5755 5756 5757 5759 5761 5763 5763 5763 5764
5738 5738 5738 5739 5739 5740 5741 5742 5743 5744 5745 5745 5746 5746 5746 5746 5746 5746 5746 5746 5746 5746 5746 5746 5746 5746 5746 5746 5746 5746 5746 5746 5746 5746 5745 5745 5745 5745 5744 5744 5744 5744 5744 5744 5744 5744 5744 5744 5744 5744 5744 5744 5744 5744 5744 5744 5744 5745 5745 5745 5746 5745 5745 5745 5745 5745 5745 5745 5746 5747 5748 5748 5749 5749 5749 5749 5750 5750 5751 5753 5755 5756 5757 5758 5759
5736 5736 5737 5737 5738 5738 5739 5740 5741 5742 5743 5743 5744 5744 5744 5744 5744 5744 5744 5744 5744 5744 5745 5745 5745 5745 5745 5745 5745 5745 5745 5745 5745 5744 5744 5744 5744 5743 5743 5743 5743 5743 5743 5743 5743 5743 5743 5743 5743 5742 5743 5743 5743 5742 5742 5742 5742 5742 5742 5742 5743 5743 5743 5743 5743 5743 5743 5742 5742 5743 5743 5743 5744 5744 5744 5744 5745 5746 5746 5747 5748 5749 5751 5752 5753
5735 5735 5736 5736 5737 5737 5738 5738 5739 5740 5740 5741 5742 5742 5742 5743 5743 5743 5743 5743 5743 5743 5743 5743 5743 5743 5743 5743 5744 5744 5743 5743 5743 5743 5743 5742 5742 5742 5741 5741 5741 5741 5741 5741 5741 5741 5741 5741 5741 5741 5741 5742 5741 5741 5741 5741 5741 5740 5740 5740 5740 5740 5740 5740 5740 5740 5740 5740 5740 5740 5739 5740 5740 5740 5740 5740 5741 5742 5742 5742 5742 5743 5744 5746 5748
5733 5734 5734 5735 5735 5735 5736 5737 5737 5738 5739 5739 5739 5740 5740 5741 5741 5741 5742 5742 5742 5742 5742 5742 5742 5742 5742 5742 5742 5742 5742 5742 5741 5741 5741 5741 5741 5740 5740 5740 5739 5739 5739 5739 5739 5740 5740 5740 5740 5740 5740 5740 5740 5740 5740 5740 5739 5739 5738 5738 5738 5738 5738 5738 5738 5738 5738 5737 5737 5737 5737 5736 5736 5736 5735 5736 5736 5737 5738 5738 5738 5739 5740 5741 5743
5732 5732 5732 5732 5733 5734 5734 5735 5735 5736 5737 5737 5738 5738 5738 5739 5739 5740 5740 5741 5741 5741 5741 5741 5741 5741 5741 5740 5740 5740 5740 5740 5740 5739 5739 5739 5739 5738 5738 5738 5738 5737 5737 5737 5737 5737 5738 5738 5738 5738 5738 5738 5738 5738 5738 5738 5738 5737 5737 5737 5736 5736 5735 5735 5735 5735 5735 5735 5734 5734 5734 5733 5733 5733 5732 5732 5732 5732 5733 5733 5734 5735 5736 5737 5738
5729 5729 5730 5730 5731 5731 5731 5732 5733 5733 5734 5735 5735 5736 5736 5737 5738 5738 5739 5739 5739 5739 5739 5739 5739 5739 5739 5739 5738 5738 5738 5738 5737 5737 5737 5737 5737 5737 5736 5736 5736 5736 5735 5735 5735 5734 5735 5735 5736 5736 5735 5736 5736 5736 5735 5735 5735 5735 5735 5735 5735 5734 5734 5733 5733 5733 5732 5732 5732 5731 5731 5731 5730 5730 5730 5729 5729 5729 5729 5729 5730 5731 5732 5733 5734
5725 5726 5727 5728 5728 5728 5728 5729 5730 5730 5731 5731 5732 5733 5733 5734 5735 5736 5736 5737 5737 5737 5737 5737 5737 5737 5737 5737 5736 5736 5736 5735 5735 5735 5735 5735 5735 5735 5734 5734 5734 5734 5733 5733 5732 5732 5732 5732 5732 5733 5733 5733 5733 5733 5732 5732 5732 5732 5732 5731 5731 5731 5731 5731 5730 5730 5730 5729 5729 5729 5728 5728 5727 5727 5727 5727 5726 5726 5726 5726 5727 5728 5729 5730 5730
5722 5723 5723 5724 5724 5725 5725 5726 5727 5727 5728 5728 5729 5729 5730 5731 5732 5733 5733 5734 5734 5734 5735 5735 5734 5734 5734 5734 5733 5733 5733 5733 5733 5733 5733 5732 5732 5732 5732 5732 5732 5731 5731 5731 5730 5730 5730 5729 5729 5729 5729 5729 5729 5730 5729 5729 5728 5728 5728 5728 5728 5728 5727 5727 5727 5727 5726 5726 5726 5726 5725 5725 5724 5724 5724 5724 5724 5723 5723 5724 5724 5725 5725 5726 5726
5719 5720 5720 5721 5721 5721 5722 5723 5724 5724 5725 5726 5726 5727 5727 5727 5728 5729 5730 5730 5731 5731 5731 5731 5731 5731 5731 5731 5730 5730 5730 5730 5730 5730 5730 5730 5729 5729 5729 5729 5728 5728 5728 5728 5728 5728 5727 5727 5726 5726 5726 5726 5726 5726 5726 5726 5725 5725 5724 5724 5723 5724 5724 5723 5722 5722 5723 5723 5722 5722 5722 5721 5721 5721 5720 5720 5720 5720 5720 5720 5721 5721 5721 5722 5722
5717 5718 5718 5719 5719 5720 5720 5721 5721 5722 5722 5722 5723 5723 5724 5724 5725 5725 5726 5727 5727 5727 5727 5727 5727 5727 5727 5727 5727 5727 5727 5727 5727 5727 5727 5727 5727 5726 5726 5726 5725 5725 5725 5725 5725 5724 5724 5724 5723 5723 5722 5722 5722 5722 5722 5722 5722 5722 5721 5720 5719 5719 5719 5719 5718 5717 5718 5718 5718 5717 5717 5717 5717 5717 5716 5716 5716 5716 5716 5716 5717 5717 5717 5717 5718
5715 5715 5715 5716 5717 5717 5717 5718 5719 5719 5718 5718 5719 5719 5720 5721 5721 5722 5722 5723 5723 5723 5723 5722 5722 5723 5723 5723 5723 5723 5723 5723 5724 5723 5723 5723 5723 5723 5723 5722 5722 5721 5721 5721 5721 5721 5720 5720 5720 5719 5719 5718 5718 5718 5718 5718 5718 5718 5718 5718 5717 5715 5714 5714 5714 5713 5713 5713 5713 5712 5712 5712 5712 5712 5712 5711 5711 5711 5712 5712 5712 5712 5712 5713 5713
5712 5713 5713 5713 5714 5714 5714 5715 5716 5716 5715 5714 5714 5715 5715 5716 5717 5718 5718 5718 5718 5718 5718 5718 5718 5719 5719 5719 5718 5718 5719 5719 5719 5719 5719 5719 5719 5718 5718 5717 5717 5717 5717 5717 5717 5716 5716 5716 5715 5715 5714 5714 5714 5714 5714 5713 5713 5713 5713 5713 5713 5713 5711 5710 5709 5708 5708 5708 5708 5707 5706 5706 5707 5707 5706 5706 5706 5706 5706 5706 5706 5707 5707 5707 5707
5709 5709 5710 5710 5711 5711 5711 5711 5711 5712 5711 5710 5710 5711 5712 5712 5713 5713 5713 5713 5713 5714 5714 5714 5714 5714 5714 5714 5714 5714 5714 5714 5714 5714 5714 5714 5713 5713 5713 5713 5712 5712 5712 5712 5712 5711 5711 5711 5710 5710 5709 5709 5708 5708 5708 5708 5708 5708 5707 5707 5707 5707 5707 5706 5704 5703 5702 5702 5703 5702 5701 5700 5701 5701 5701 5700 5700 5700 5701 5701 5701 5701 5701 5701 5702
5705 5704 5703 5705 5707 5707 5706 5705 5705 5706 5706 5706 5706 5707 5707 5708 5708 5709 5709 5709 5709 5709 5709 5709 5709 5709 5709 5709 5709 5709 5709 5709 5709 5709 5708 5708 5708 5708 5708 5708 5707 5707 5707 5707 5706 5706 5705 5705 5705 5704 5704 5704 5703 5702 5702 5702 5701 5701 5701 5701 5701 5701 5701 5700 5700 5698 5696 5695 5697 5698 5696 5694 5694 5695 5695 5694 5694 5694 5694 5694 5694 5695 5695 5695 5696
5701 5699 5698 5699 5701 5701 5700 5699 5700 5700 5701 5701 5701 5702 5703 5703 5704 5704 5704 5704 5704 5704 5704 5704 5704 5703 5703 5703 5703 5703 5703 5703 5703 5703 5703 5703 5702 5702 5702 5702 5702 5702 5701 5701 5700 5700 5699 5699 5699 5698 5698 5698 5697 5696 5695 5695 5694 5694 5693 5693 5693 5694 5694 5694 5694 5693 5690 5688 5689 5692 5692 5689 5688 5689 5689 5688 5688 5688 5688 5687 5687 5688 5689 5689 5690
5695 5694 5694 5695 5695 5695 5694 5695 5695 5695 5696 5696 5697 5697 5698 5698 5699 5699 5698 5698 5698 5698 5698 5698 5697 5697 5697 5697 5697 5697 5697 5697 5696 5696 5696 5696 5696 5696 5696 5696 5697 5696 5695 5694 5693 5693 5693 5692 5692 5692 5691 5691 5690 5689 5689 5688 5687 5687 5686 5686 5685 5685 5686 5686 5686 5686 5684 5682 5682 5683 5685 5683 5681 5682 5683 5681 5681 5682 5682 5681 5680 5681 5681 5682 5682
5689 5688 5689 5689 5689 5690 5690 5690 5689 5690 5690 5690 5691 5692 5692 5692 5692 5692 5692 5692 5692 5692 5691 5691 5691 5691 5691 5690 5690 5690 5690 5690 5690 5689 5689 5689 5689 5689 5689 5689 5690 5689 5688 5688 5687 5687 5686 5685 5685 5684 5684 5684 5683 5682 5681 5680 5680 5680 5680 5679 5678 5678 5678 5678 5678 5677 5676 5675 5674 5675 5677 5676 5673 5674 5675 5674 5673 5674 5674 5674 5674 5674 5674 5674 5674
5682 5682 5682 5683 5683 5683 5683 5683 5683 5683 5684 5684 5685 5685 5685 5685 5685 5685 5685 5685 5685 5685 5685 5685 5685 5684 5684 5684 5684 5684 5684 5684 5683 5683 5682 5682 5682 5682 5681 5682 5682 5681 5681 5681 5680 5680 5679 5678 5677 5676 5676 5676 5675 5674 5673 5673 5672 5672 5672 5672 5671 5670 5670 5670 5669 5668 5667 5666 5665 5666 5668 5668 5666 5666 5667 5666 5665 5665 5665 5665 5666 5667 5666 5666 5666
5675 5675 5676 5676 5676 5676 5676 5676 5676 5676 5677 5677 5677 5677 5678 5678 5678 5678 5678 5678 5678 5678 5678 5678 5678 5678 5678 5678 5677 5677 5677 5677 5677 5676 5676 5675 5675 5674 5674 5673 5673 5673 5673 5672 5672 5671 5670 5669 5669 5668 5667 5667 5666 5666 5665 5664 5664 5664 5663 5663 5662 5661 5662 5662 5662 5660 5659 5657 5655 5655 5657 5659 5658 5658 5658 5657 5657 5657 5657 5656 5657 5658 5658 5658 5658
5668 5669 5669 5669 5669 5669 5669 5669 5669 5669 5670 5670 5670 5670 5670 5671 5671 5671 5671 5671 5671 5671 5671 5672 5671 5671 5672 5671 5671 5671 5671 5671 5670 5669 5669 5668 5667 5667 5666 5666 5665 5664 5664 5664 5663 5662 5662 5661 5660 5659 5659 5658 5657 5657 5656 5655 5655 5654 5654 5654 5652 5651 5652 5653 5653 5652 5651 5649 5647 5645 5646 5648 5648 5648 5649 5648 5648 5649 5649 5648 5648 5649 5650 5650 5650
5661 5662 5663 5663 5663 5663 5663 5663 5663 5663 5663 5663 5663 5663 5663 5664 5664 5664 5664 5664 5665 5665 5665 5665 5665 5665 5665 5665 5665 5664 5664 5663 5663 5662 5661 5661 5660 5659 5658 5658 5657 5656 5656 5655 5654 5654 5653 5652 5651 5651 5650 5649 5649 5648 5647 5646 5645 5644 5643 5643 5642 5642 5642 5642 5642 5642 5642 5641 5638 5636 5637 5638 5638 5638 5639 5639 5639 5640 5639 5639 5639 5639 5640 5640 5641
5655 5656 5656 5657 5657 5657 5657 5657 5657 5657 5657 5657 5656 5656 5657 5657 5657 5657 5657 5657 5658 5658 5658 5658 5658 5658 5658 5657 5657 5657 5656 5656 5655 5654 5653 5652 5651 5651 5650 5649 5649 5648 5647 5646 5646 5645 5644 5643 5642 5641 5641 5640 5639 5639 5637 5636 5635 5634 5633 5633 5632 5632 5632 5632 5631 5631 5632 5632 5629 5626 5628 5629 5628 5628 5628 5629 5630 5631 5630 5630 5631 5631 5630 5631 5631